When you browse on this site, cookies collect data to enhance your experience and personalize the content and advertising you see.
Visit our Privacy Policy to learn more. By continuing to use the site, you agree to this use of cookies and data.
  • In Latvia
  • List of Countries
  • For 7 days
  • Water Temperature
  • Satellite Maps
  • Weather Map
  • Weather Widgets
  • user-avatar
    Login

    Hourly Weather Reno

    Today, 21 July, Sunday

    Time Temperature Precipitation Wind Pressure Humidity
    00:00 +20°C° 0 mm 2 mps 644 mmHg 49%
    01:00 +21°C° 0 mm 1 mps 644 mmHg 51%
    02:00 +20°C° 0 mm 1 mps 644 mmHg 52%
    03:00 +20°C° 0 mm 1 mps 644 mmHg 53%
    04:00 +19°C° 0 mm 1 mps 644 mmHg 53%
    05:00 +21°C° 0 mm 1 mps 645 mmHg 49%
    06:00 +23°C° 0 mm 1 mps 645 mmHg 44%
    07:00 +24°C° 0 mm 1 mps 646 mmHg 39%
    08:00 +26°C° 0 mm 1 mps 647 mmHg 35%
    09:00 +28°C° 0 mm 1 mps 647 mmHg 31%
    10:00 +30°C° 0 mm 1 mps 648 mmHg 26%
    11:00 +32°C° 0 mm 1 mps 648 mmHg 24%
    12:00 +34°C° 0 mm 2 mps 648 mmHg 21%
    13:00 +36°C° 0 mm 2 mps 648 mmHg 19%
    14:00 +36°C° 0 mm 3 mps 648 mmHg 18%
    15:00 +36°C° 0 mm 5 mps 647 mmHg 18%
    16:00 +36°C° 0 mm 6 mps 647 mmHg 17%
    17:00 +34°C° 0 mm 5 mps 647 mmHg 21%
    18:00 +30°C° 0 mm 4 mps 646 mmHg 25%
    19:00 +28°C° 0 mm 3 mps 646 mmHg 29%
    20:00 +27°C° 0 mm 3 mps 646 mmHg 33%
    21:00 +25°C° 0 mm 2 mps 646 mmHg 36%
    22:00 +23°C° 0 mm 2 mps 646 mmHg 40%
    23:00 +23°C° 0 mm 2 mps 646 mmHg 42%

    Tomorrow, 22 July, Monday

    Time Temperature Precipitation Wind Pressure Humidity
    00:00 +21°C° 0 mm 2 mps 646 mmHg 44%
    01:00 +20°C° 0 mm 2 mps 646 mmHg 47%
    02:00 +21°C° 0 mm 1 mps 646 mmHg 48%
    03:00 +20°C° 0 mm 1 mps 646 mmHg 49%
    04:00 +20°C° 0 mm 1 mps 646 mmHg 50%
    05:00 +22°C° 0 mm 1 mps 646 mmHg 45%
    06:00 +24°C° 0 mm 1 mps 647 mmHg 39%
    07:00 +25°C° 0 mm 1 mps 648 mmHg 34%
    08:00 +28°C° 0 mm 1 mps 648 mmHg 30%
    09:00 +30°C° 0 mm 2 mps 649 mmHg 25%
    10:00 +32°C° 0 mm 2 mps 649 mmHg 20%
    11:00 +34°C° 0 mm 3 mps 650 mmHg 18%
    12:00 +36°C° 0 mm 4 mps 650 mmHg 17%
    13:00 +37°C° 0 mm 5 mps 650 mmHg 15%
    14:00 +36°C° 0 mm 5 mps 649 mmHg 16%
    15:00 +36°C° 0 mm 6 mps 649 mmHg 16%
    16:00 +35°C° 0 mm 7 mps 648 mmHg 17%
    17:00 +33°C° 0 mm 6 mps 648 mmHg 22%
    18:00 +30°C° 0 mm 4 mps 648 mmHg 26%
    19:00 +28°C° 0 mm 3 mps 648 mmHg 30%
    20:00 +26°C° 0 mm 3 mps 648 mmHg 34%
    21:00 +25°C° 0 mm 2 mps 648 mmHg 38%
    22:00 +23°C° 0 mm 2 mps 647 mmHg 42%
    23:00 +21°C° 0 mm 2 mps 647 mmHg 44%

    Day after tomorrow, 23 July, Tuesday

    Time Temperature Precipitation Wind Pressure Humidity
    00:00 +22°C° 0 mm 1 mps 647 mmHg 46%
    01:00 +21°C° 0 mm 1 mps 647 mmHg 47%
    02:00 +21°C° 0 mm 1 mps 647 mmHg 48%
    03:00 +21°C° 0 mm 1 mps 647 mmHg 49%
    04:00 +20°C° 0 mm 1 mps 647 mmHg 49%
    05:00 +22°C° 0 mm 1 mps 648 mmHg 45%
    06:00 +24°C° 0 mm 1 mps 648 mmHg 40%
    07:00 +26°C° 0 mm 1 mps 649 mmHg 35%
    08:00 +28°C° 0 mm 2 mps 649 mmHg 32%
    09:00 +30°C° 0 mm 3 mps 650 mmHg 28%
    10:00 +33°C° 0 mm 3 mps 650 mmHg 24%
    11:00 +33°C° 0 mm 4 mps 650 mmHg 24%
    12:00 +33°C° 0 mm 5 mps 649 mmHg 23%
    13:00 +34°C° 0 mm 6 mps 649 mmHg 23%
    14:00 +34°C° 0 mm 7 mps 649 mmHg 22%
    15:00 +34°C° 0 mm 8 mps 649 mmHg 21%
    16:00 +34°C° 0 mm 8 mps 649 mmHg 21%
    17:00 +32°C° 0 mm 7 mps 648 mmHg 24%
    18:00 +29°C° 0 mm 5 mps 648 mmHg 27%
    19:00 +27°C° 0 mm 4 mps 648 mmHg 31%
    20:00 +24°C° 0 mm 3 mps 648 mmHg 34%
    21:00 +21°C° 0 mm 3 mps 647 mmHg 38%
    22:00 +19°C° 0 mm 2 mps 647 mmHg 41%
    23:00 +18°C° 0 mm 2 mps 647 mmHg 42%

    24 July, Wednesday

    Time Temperature Precipitation Wind Pressure Humidity
    00:00 +18°C° 0 mm 2 mps 647 mmHg 42%
    01:00 +18°C° 0 mm 1 mps 647 mmHg 42%
    02:00 +18°C° 0 mm 1 mps 647 mmHg 42%
    03:00 +16°C° 0 mm 1 mps 647 mmHg 43%
    04:00 +16°C° 0 mm 1 mps 646 mmHg 43%
    05:00 +20°C° 0 mm 1 mps 647 mmHg 38%
    06:00 +22°C° 0 mm 1 mps 648 mmHg 34%
    07:00 +24°C° 0 mm 1 mps 649 mmHg 29%
    08:00 +27°C° 0 mm 1 mps 650 mmHg 27%
    09:00 +29°C° 0 mm 1 mps 650 mmHg 24%
    10:00 +31°C° 0 mm 1 mps 650 mmHg 21%
    11:00 +32°C° 0 mm 2 mps 650 mmHg 19%
    12:00 +35°C° 0 mm 3 mps 650 mmHg 17%
    13:00 +36°C° 0 mm 4 mps 650 mmHg 14%
    14:00 +36°C° 0 mm 5 mps 650 mmHg 14%
    15:00 +36°C° 0 mm 6 mps 649 mmHg 13%
    16:00 +36°C° 0 mm 7 mps 649 mmHg 13%
    17:00 +34°C° 0 mm 6 mps 648 mmHg 16%
    18:00 +30°C° 0 mm 5 mps 647 mmHg 19%
    19:00 +28°C° 0 mm 3 mps 647 mmHg 22%
    20:00 +26°C° 0 mm 3 mps 646 mmHg 24%
    21:00 +24°C° 0 mm 2 mps 646 mmHg 27%
    22:00 +21°C° 0 mm 2 mps 646 mmHg 30%
    23:00 +20°C° 0 mm 2 mps 646 mmHg 31%

    25 July, Thursday

    Time Temperature Precipitation Wind Pressure Humidity
    00:00 +20°C° 0 mm 2 mps 646 mmHg 33%
    01:00 +19°C° 0 mm 2 mps 645 mmHg 35%
    02:00 +20°C° 0 mm 1 mps 645 mmHg 36%
    03:00 +19°C° 0 mm 1 mps 645 mmHg 38%
    04:00 +19°C° 0 mm 1 mps 645 mmHg 39%
    05:00 +21°C° 0 mm 1 mps 646 mmHg 36%
    06:00 +23°C° 0 mm 1 mps 647 mmHg 32%
    07:00 +25°C° 0 mm 1 mps 647 mmHg 28%
    08:00 +28°C° 0 mm 1 mps 648 mmHg 25%
    09:00 +30°C° 0 mm 2 mps 648 mmHg 22%
    10:00 +32°C° 0 mm 2 mps 649 mmHg 19%
    11:00 +34°C° 0 mm 3 mps 649 mmHg 17%
    12:00 +36°C° 0 mm 5 mps 649 mmHg 15%
    13:00 +38°C° 0 mm 6 mps 649 mmHg 14%
    14:00 +38°C° 0 mm 6 mps 648 mmHg 13%
    15:00 +38°C° 0 mm 7 mps 648 mmHg 13%
    16:00 +36°C° 0 mm 7 mps 647 mmHg 13%
    17:00 +34°C° 0 mm 6 mps 647 mmHg 17%
    18:00 +32°C° 0 mm 4 mps 646 mmHg 20%
    19:00 +29°C° 0 mm 3 mps 646 mmHg 23%
    20:00 +27°C° 0 mm 3 mps 646 mmHg 26%
    21:00 +25°C° 0 mm 2 mps 646 mmHg 29%
    22:00 +23°C° 0 mm 2 mps 646 mmHg 31%
    23:00 +21°C° 0 mm 2 mps 645 mmHg 32%

    26 July, Friday

    Time Temperature Precipitation Wind Pressure Humidity
    00:00 +21°C° 0 mm 2 mps 645 mmHg 33%
    01:00 +21°C° 0 mm 1 mps 645 mmHg 35%
    02:00 +21°C° 0 mm 1 mps 645 mmHg 35%
    03:00 +21°C° 0 mm 1 mps 645 mmHg 35%
    04:00 +20°C° 0 mm 1 mps 645 mmHg 35%
    05:00 +23°C° 0 mm 1 mps 646 mmHg 31%
    06:00 +25°C° 0 mm 1 mps 647 mmHg 28%
    07:00 +27°C° 0 mm 1 mps 648 mmHg 24%
    08:00 +29°C° 0 mm 1 mps 648 mmHg 22%
    09:00 +31°C° 0 mm 2 mps 649 mmHg 20%
    10:00 +34°C° 0 mm 2 mps 649 mmHg 18%
    11:00 +35°C° 0 mm 4 mps 649 mmHg 17%
    12:00 +36°C° 0 mm 5 mps 649 mmHg 16%
    13:00 +38°C° 0 mm 6 mps 649 mmHg 15%
    14:00 +36°C° 0 mm 7 mps 649 mmHg 15%
    15:00 +36°C° 0 mm 7 mps 649 mmHg 16%
    16:00 +37°C° 0 mm 8 mps 648 mmHg 16%
    17:00 +33°C° 0 mm 6 mps 648 mmHg 19%
    18:00 +30°C° 0 mm 4 mps 648 mmHg 21%
    19:00 +28°C° 0 mm 3 mps 647 mmHg 24%
    20:00 +26°C° 0 mm 3 mps 647 mmHg 26%
    21:00 +24°C° 0 mm 2 mps 647 mmHg 29%
    22:00 +23°C° 0 mm 2 mps 647 mmHg 31%
    23:00 +21°C° 0 mm 2 mps 647 mmHg 32%
    Show more